Simultaneous Nadir Overpasses (SNOs) Predictions

Prediction of SNOs between GOES-17 and METOP-C Satellite Orbit:

Table of predicted SNOs for the next 14.0 days since TLE Epoch: 6/13/2025
Index Date Time (GOES-17) GOES-17 Lat,Lon METOP-C Lat,Lon Distance(km) Time Diff (sec)
1 06/14/2025 16:16:42 0.01,-104.44 -0.72,-101.22 367.18 80
2 06/16/2025 04:35:42 -0.01,-104.37 -0.34,-105.81 163.88 80
3 06/17/2025 04:12:23 -0.01,-104.37 0.75,-100.81 405.17 80
4 06/18/2025 16:31:15 0.01,-104.44 0.22,-105.38 106.99 80
5 06/19/2025 16:13:16 0.01,-104.44 -0.88,-100.38 462.35 80
6 06/21/2025 04:32:17 -0.01,-104.37 -0.12,-104.98 68.54 80
7 06/23/2025 16:27:49 -0.00,-104.43 0.04,-104.54 12.88 80
8 06/26/2025 04:26:11 0.00,-104.36 0.08,-104.14 25.47 80
9 06/27/2025 16:45:02 -0.01,-104.41 0.93,-108.70 488.03 80
